Lid_Strength_Index
9 12 13 12 11 11 12 13 13 11 10 12 12 12 10 11 11 12 11 11 12 12 12 11 11 11 10 9 9 10 10 10 10 11 12 12 14 13 14 13 13 13 12 12
12 14 10 10 10 11 12 13 13 11 10 12 13 13 11 11 11 11 11 12 12 13 13 11 12 11 11 11 10 10 11 11 11 11 12 12 13 14 13 13 13 13 13 13
12 11 9 11 12 12 13 14 13 13 12 13 14 15 13 10 10 11 11 11 12 13 13 12 12 12 11 11 11 11 11 11 12 12 12 12 12 13 14 14 14 13 13 13
11 9 10 12 12 12 14 11 12 13 15 17 13 18 15 12 12 12 13 13 13 13 12 11 12 12 12 11 10 11 11 11 11 11 11 12 14 15 14 14 14 14 13 13
13 13 12 13 12 11 13 12 13 14 15 16 16 17 16 14 13 13 13 13 13 13 13 12 12 13 12 12 12 12 12 11 11 12 13 14 14 14 14 14 14 14 13 13
12 11 12 12 11 11 11 13 14 15 15 19 16 16 16 13 12 13 13 13 13 13 13 13 13 13 13 13 13 13 13 14 13 14 14 14 14 14 14 14 14 14 14 14
13 12 12 11 13 13 13 15 19 20 20 20 16 16 14 13 13 12 13 13 13 13 13 14 15 14 14 14 14 15 15 15 14 14 14 14 14 14 14 14 14 14 15 15
15 16 12 11 12 14 15 14 17 23 22 19 18 19 15 14 13 12 12 12 13 13 14 15 15 15 15 15 15 15 15 15 15 14 14 14 14 14 14 14 14 14 15 15
14 14 12 12 11 11 14 16 12 16 22 22 17 16 14 15 14 13 13 13 13 14 15 15 15 15 15 15 15 15 15 15 15 15 14 15 14 14 14 14 14 15 15 14
12 16 13 14 12 12 13 12 17 16 22 22 18 17 16 16 15 14 14 13 13 14 14 15 15 15 15 15 15 15 15 15 15 15 14 14 14 14 14 14 15 16 16 16
11 13 16 14 15 14 15 16 15 14 16 20 21 18 15 13 13 14 13 13 13 14 15 15 15 15 15 15 15 15 15 15 15 15 15 15 15 14 15 15 16 16 17 17
10 12 17 16 14 12 12 13 13 17 18 17 18 16 13 13 12 13 13 12 13 13 14 15 15 15 15 15 15 15 15 15 15 14 15 15 15 16 16 17 17 17 18 18
10 14 18 17 14 13 15 13 12 12 15 17 18 16 13 13 12 12 13 12 12 13 14 15 15 16 16 16 15 15 15 15 15 15 15 16 16 17 17 18 18 18 18 18
9 13 15 17 15 14 17 15 13 13 16 17 16 15 14 14 14 13 13 12 12 13 14 15 15 16 15 15 15 15 15 15 15 15 16 16 17 17 18 18 18 18 19 19
10 15 14 13 12 13 14 15 14 15 14 16 15 14 12 10 12 12 12 12 13 13 14 14 15 15 15 15 15 15 15 14 14 15 16 17 17 17 18 18 18 19 19 19
11 15 14 15 13 13 14 13 13 13 13 14 13 14 11 12 12 13 12 12 13 13 13 14 14 15 15 15 15 15 15 14 15 16 17 17 18 18 18 18 19 19 19 19
13 14 15 17 15 14 17 14 13 13 12 12 15 13 13 13 12 13 12 12 12 12 12 13 14 14 15 15 15 15 15 15 15 16 16 17 18 18 19 19 19 19 20 19
14 14 14 17 16 20 15 15 12 12 11 11 11 11 14 12 12 13 12 12 12 12 12 12 13 13 14 14 14 14 15 15 16 17 17 18 18 19 19 19 19 19 19 20
12 14 16 17 18 16 14 17 16 16 14 12 11 12 12 13 14 13 11 10 10 11 11 11 11 12 13 14 14 15 16 16 17 17 18 18 18 19 20 20 19 20 20 20
15 15 14 17 19 20 16 17 15 13 17 13 12 12 12 13 14 10 11 11 12 11 11 12 12 13 14 14 14 16 16 16 16 16 16 17 18 18 19 19 20 20 21 20
18 17 16 16 17 15 13 16 16 18 16 17 13 12 14 13 13 14 14 14 13 13 13 13 13 14 14 14 15 15 16 16 14 15 17 18 18 19 20 21 21 22 23 20
16 16 17 15 17 18 16 16 15 14 17 17 15 13 13 14 15 15 15 15 15 15 14 14 15 15 15 14 14 15 15 14 16 17 18 19 21 19 20 23 23 24 25 26
16 15 15 14 15 15 15 15 14 14 15 16 15 14 13 14 15 15 15 15 15 15 15 15 16 17 16 15 14 15 15 16 18 18 20 21 22 21 21 24 23 24 24 23
15 15 15 15 15 15 14 14 14 14 14 14 15 14 13 15 15 15 15 15 15 15 15 17 16 17 17 17 16 15 16 17 18 20 21 22 22 22 22 20 20 21 21 21
15 15 17 17 15 15 14 14 13 13 14 15 15 14 13 14 15 15 15 16 14 14 15 15 16 16 17 17 17 17 17 18 19 20 20 21 21 21 21 20 20 19 20 19
15 15 16 16 13 13 12 11 11 12 12 13 14 14 13 12 13 14 15 14 15 15 16 16 16 16 17 17 17 18 18 18 19 20 20 20 19 20 19 19 20 13 13 12